Temperature
21 21 21 20 20 20 20 20 19 19 19 19 19 19 18 18 18 18 18 18 18 18 18 18 18 18 18 18 17 17 17 17 17 17 17 17 17 17 17 17 17 17 17
21 21 21 20 20 20 20 20 20 19 19 19 19 19 19 18 18 18 18 18 18 18 18 18 18 18 18 18 17 17 17 17 17 17 17 17 17 17 17 17 17 17 17
22 21 21 21 20 20 20 20 20 20 19 19 19 19 19 18 18 18 18 18 18 18 18 18 17 17 17 17 17 17 17 17 17 17 17 17 17 17 17 17 17 17 17
22 22 21 21 21 21 20 20 20 20 19 19 19 19 19 19 19 18 18 18 18 18 18 17 17 17 17 17 17 17 17 17 17 17 17 17 17 17 16 17 17 17 16
22 22 22 21 21 21 21 20 20 20 19 19 19 19 19 19 18 18 18 18 18 18 18 18 17 17 17 17 17 17 17 17 17 17 17 17 17 17 16 16 16 16 16
22 22 22 22 21 21 21 20 20 20 20 19 19 19 19 19 18 18 18 18 18 18 17 17 17 17 17 17 17 17 17 17 17 17 17 17 16 17 16 16 16 16 16
22 22 22 22 21 21 21 20 20 20 20 19 19 19 19 19 19 18 18 18 18 18 17 17 17 17 17 17 17 17 17 17 17 17 17 16 16 16 16 16 16 16 16
22 22 22 22 22 21 21 21 20 20 20 20 19 19 19 19 18 18 18 18 18 18 17 17 17 17 17 17 17 17 17 17 16 16 16 16 16 16 16 16 16 16 16
23 23 23 22 22 21 21 21 21 20 20 20 19 19 19 19 18 18 18 18 18 17 17 17 17 17 17 17 17 17 17 17 16 16 16 16 16 16 16 16 16 16 15
22 22 22 22 22 22 21 21 20 20 20 20 20 19 19 19 18 18 18 18 18 17 17 17 17 17 17 17 17 16 16 17 16 16 16 16 16 16 16 16 16 16 15
22 22 22 22 22 21 21 21 20 20 20 20 20 19 19 19 19 18 18 18 18 17 17 17 17 17 17 16 16 16 16 16 16 16 16 16 16 16 16 16 15 15 15
22 22 22 22 22 22 21 21 20 20 20 20 20 19 19 19 19 18 18 18 18 17 17 17 17 16 16 16 16 16 16 16 16 16 16 16 16 16 15 15 15 15 15
21 21 21 22 22 21 21 21 20 20 20 19 19 19 19 19 18 18 18 18 18 17 17 17 17 16 16 16 16 16 16 15 15 15 15 15 15 15 15 15 15 15 15
21 21 21 21 21 21 21 20 20 20 20 19 19 19 19 19 18 18 18 17 17 17 17 17 16 16 16 16 16 15 15 15 15 15 15 15 15 15 15 15 14 14 14
20 20 21 21 21 21 20 20 20 20 19 19 19 19 19 18 18 18 17 17 17 17 17 16 16 16 16 16 15 15 15 15 15 15 15 15 15 15 14 14 14 14 14
20 20 20 21 20 20 20 20 20 20 19 19 19 19 18 18 18 18 17 17 17 17 16 16 16 16 16 15 15 15 15 15 15 15 15 14 14 14 14 14 14 14 14
20 20 20 20 20 20 20 20 20 19 19 19 19 19 18 18 18 17 17 17 17 16 16 16 16 15 15 15 15 15 15 15 15 14 14 14 14 14 14 14 14 13 13
20 20 20 20 20 20 20 20 19 19 19 19 19 18 18 17 17 17 17 17 16 16 16 16 15 15 15 15 15 15 15 14 14 14 14 14 14 14 14 13 13 13 13
21 20 20 20 20 20 20 19 19 18 18 18 18 18 18 17 17 17 17 16 16 16 16 16 15 15 15 15 15 15 14 14 14 14 14 14 14 14 13 13 13 13 13
20 20 19 19 19 19 19 19 18 18 18 18 18 18 17 17 17 17 17 16 16 16 16 15 15 15 15 15 15 14 14 14 14 14 14 14 13 13 13 13 13 13 13
19 19 19 19 19 19 19 18 18 18 18 18 18 17 17 17 17 17 16 16 16 16 15 15 15 15 15 15 14 14 14 14 14 14 14 13 13 13 13 13 13 12 12
19 19 19 19 19 18 18 18 18 18 18 18 17 17 17 17 16 16 16 16 16 15 15 15 15 15 15 15 14 14 14 13 13 13 13 13 13 13 13 13 12 12 12
19 18 18 18 18 18 18 18 18 18 17 17 17 17 17 17 16 16 16 16 15 15 15 15 15 15 14 14 14 14 14 13 13 13 13 13 12 12 12 12 12 12 12
18 18 18 18 18 18 18 17 17 17 17 17 17 16 16 16 16 16 15 15 15 15 15 14 14 14 14 14 14 14 13 13 13 13 13 12 12 12 12 12 12 12 11
18 18 18 18 18 18 17 17 17 17 16 16 16 16 16 16 16 15 15 15 15 15 15 14 14 14 14 14 13 13 13 13 13 13 12 12 12 12 12 12 12 11 11
17 17 17 17 17 17 17 17 16 16 16 16 16 16 16 15 15 15 15 15 15 15 14 14 14 14 14 13 13 13 13 13 12 12 12 12 12 12 11 11 11 11 11
Wind_Speed
7 7 7 6 6 5 5 4 4 3 3 2 2 2 1 1 0 1 2 3 3 3 3 2 2 2 2 2 3 2 1 1 1 1 1 2 1 0 1 1 1 1 1
6 7 7 6 6 6 5 5 4 4 4 2 2 2 2 1 1 0 0 2 3 3 3 3 3 2 2 2 2 2 1 1 1 2 1 1 2 2 1 0 0 0 0
12 10 9 8 7 7 7 7 6 5 4 4 2 2 2 2 1 1 0 0 2 3 3 3 3 2 3 2 2 3 3 2 1 1 2 2 2 1 1 1 0 1 1
10 10 10 10 9 9 8 7 6 5 4 4 4 4 3 2 1 1 1 0 1 2 2 3 3 2 2 2 2 2 2 3 2 1 1 1 2 1 1 1 1 1 1
12 12 12 11 10 9 8 7 6 5 4 4 5 4 3 2 1 1 1 1 1 0 1 2 2 2 2 2 2 2 2 2 2 2 1 1 1 1 2 1 1 1 1
12 11 10 9 8 7 7 7 6 5 5 5 4 4 4 3 3 2 1 0 1 1 0 1 2 2 1 2 2 2 2 2 2 2 2 2 2 2 2 2 1 1 1
13 12 11 11 10 9 8 7 7 6 5 5 5 5 5 5 4 3 2 2 1 0 1 1 1 1 1 1 1 2 2 2 2 3 2 2 2 2 2 2 2 1 1
12 12 12 12 11 11 9 8 8 7 6 6 5 4 4 4 3 3 3 3 2 2 1 1 1 1 1 1 1 1 1 1 2 2 2 2 3 3 3 3 3 1 1
11 11 11 11 11 10 10 10 9 7 6 6 5 4 4 4 4 3 3 2 2 2 1 2 1 1 1 1 1 1 1 1 1 1 2 2 2 2 3 3 3 3 2
9 10 9 10 9 9 8 8 8 8 6 6 6 5 4 4 4 3 3 3 2 1 2 2 1 1 1 1 1 1 1 1 1 1 1 1 1 1 1 2 2 3 3
8 8 8 8 8 7 7 7 7 6 6 6 5 5 4 4 4 4 3 3 2 2 2 2 1 1 1 1 1 1 1 1 1 1 1 1 1 1 1 1 2 2 3
5 6 7 7 7 7 6 7 6 6 6 6 5 5 4 4 4 3 3 3 3 2 3 2 2 2 1 1 1 1 1 1 1 1 1 2 1 1 1 1 2 2 3
6 6 6 6 7 7 7 6 6 6 5 5 5 5 4 4 4 3 3 3 3 2 2 2 2 2 2 2 2 2 2 1 1 1 2 2 1 1 1 1 2 2 2
6 6 6 6 6 6 6 6 5 5 5 5 6 6 5 5 4 3 3 3 3 3 2 2 2 2 2 2 2 2 2 2 2 2 2 2 2 3 3 2 2 2 2
6 6 6 5 5 5 5 6 6 6 6 6 6 6 5 5 4 3 3 3 2 3 2 2 2 2 2 2 3 3 2 2 2 2 2 2 2 3 3 3 3 3 3
6 6 6 6 5 5 5 5 5 6 6 6 6 5 5 5 4 4 3 3 2 2 2 2 2 2 2 3 4 3 3 2 2 3 3 2 2 2 2 3 4 5 4
7 7 6 6 6 6 6 6 5 5 5 5 4 4 4 4 4 4 3 3 3 3 2 2 2 3 3 4 4 4 3 3 3 3 3 2 2 2 1 1 1 2 3
6 6 5 5 4 5 5 5 5 5 5 5 4 4 4 4 4 3 3 3 3 3 3 3 3 3 3 4 4 4 3 3 3 4 4 3 3 3 2 1 1 1 2
5 5 5 5 5 5 6 6 5 5 5 4 4 4 5 5 4 4 4 3 3 3 3 3 3 3 4 4 4 4 3 3 4 4 4 4 4 4 4 3 2 2 2
4 4 4 5 6 5 6 6 5 4 4 5 5 4 4 5 5 4 3 3 3 3 3 3 3 4 5 5 5 5 3 3 4 3 4 5 5 5 5 4 4 4 4
5 5 6 5 4 5 7 6 5 4 4 4 4 4 4 4 4 4 3 2 2 2 3 3 4 5 5 5 6 6 4 4 4 4 4 4 6 6 7 6 5 6 4
5 5 5 4 3 5 6 5 4 4 3 3 3 3 2 3 3 3 3 3 3 3 3 3 4 4 4 5 5 6 7 5 5 5 4 4 6 6 6 6 6 6 4
4 4 5 4 3 3 5 5 4 3 3 3 3 2 2 2 2 3 3 3 3 3 3 3 4 4 3 3 5 6 6 7 5 4 5 5 6 5 4 6 6 5 4
4 4 5 4 3 3 3 4 3 4 4 4 3 2 2 2 2 2 3 3 3 3 3 4 4 4 3 3 2 3 3 4 4 4 4 4 4 3 3 3 3 3 4
3 4 4 4 4 3 2 2 3 4 4 4 3 3 3 3 2 2 3 4 4 5 5 5 4 4 4 5 5 4 3 3 4 3 2 1 1 2 2 3 3 3 3
3 3 3 3 2 3 2 2 3 4 5 4 3 3 3 3 3 2 2 3 4 5 7 7 6 5 6 6 5 5 5 4 4 3 2 3 3 4 4 4 4 4 4
Wind_Direction
199 183 181 176 169 167 166 165 162 163 137 119 122 120 133 116 104 190 199 187 177 167 159 151 143 152 164 177 171 151 141 149 131 97 15 4 12 321 241 246 233 246 245
188 185 182 178 176 173 174 171 177 169 162 161 152 154 148 150 165 190 217 192 172 168 172 159 163 165 162 155 156 145 145 161 138 138 111 359 354 351 350 61 143 205 149
195 192 187 186 180 183 184 192 191 178 177 163 129 101 75 60 60 47 311 235 173 174 165 162 168 173 168 175 180 170 168 178 184 160 156 162 236 312 348 6 194 188 194
194 191 191 190 192 195 187 189 186 183 184 168 157 149 145 157 194 197 213 56 134 167 175 170 173 176 169 177 191 180 176 164 191 192 191 192 173 175 312 343 335 288 269
193 191 194 195 196 191 185 189 182 185 188 181 170 159 155 165 153 117 106 61 38 95 178 172 167 174 180 190 189 173 179 178 184 187 174 170 160 174 193 268 311 334 289
193 192 190 187 190 185 184 182 180 192 189 185 178 172 172 162 145 141 142 83 34 29 36 152 153 170 181 192 197 192 185 187 184 185 182 180 181 192 189 215 248 275 298
190 187 184 184 188 187 187 182 182 193 187 185 187 184 181 170 168 172 177 164 144 140 257 156 151 158 181 191 174 173 196 194 192 199 205 206 214 196 179 183 206 231 281
189 188 188 188 191 190 187 184 186 193 185 183 186 183 175 171 178 179 174 176 190 206 189 160 153 156 167 178 158 161 200 197 207 211 204 211 225 209 196 188 178 206 258
186 185 185 187 188 188 189 186 185 188 186 184 179 175 172 173 177 172 167 172 184 187 164 153 142 147 155 162 154 175 211 179 198 210 205 216 232 214 211 203 191 189 224
180 180 182 185 185 186 185 180 182 187 185 178 181 181 176 178 170 158 163 171 178 165 139 139 141 134 155 158 144 170 200 162 227 218 196 229 247 227 204 199 203 202 203
175 173 177 180 176 175 173 173 176 177 180 178 173 168 169 169 160 164 178 179 170 162 158 160 160 167 199 195 172 204 197 191 259 265 205 246 245 232 227 204 199 201 193
154 157 162 159 160 163 165 170 171 176 183 178 166 166 163 159 163 173 179 172 173 176 176 172 175 190 195 191 185 217 225 210 229 258 252 273 266 245 224 199 193 195 193
140 135 139 151 159 162 164 166 171 171 167 161 159 163 168 170 177 181 175 171 174 176 180 175 186 194 190 192 199 202 207 209 225 233 237 258 238 237 220 201 200 193 174
148 146 152 155 161 166 162 161 162 155 155 156 162 173 185 184 183 180 172 176 179 180 187 190 196 197 198 198 201 197 205 218 239 241 241 243 230 224 213 205 202 177 159
149 158 163 163 162 157 158 160 160 157 155 158 168 182 181 175 170 169 171 171 176 190 187 186 200 202 204 212 201 201 207 219 243 258 260 257 246 230 213 204 193 176 169
167 168 167 163 168 168 165 159 166 165 156 163 176 177 171 171 174 177 173 170 183 185 175 193 207 217 232 218 199 192 204 216 225 246 262 272 268 263 231 203 191 183 182
176 175 176 174 175 174 165 166 170 158 155 165 170 172 174 177 182 183 176 186 194 193 196 212 216 227 240 227 210 203 199 214 227 234 243 258 264 252 251 244 192 198 199
177 175 172 165 163 155 151 149 145 147 159 168 174 174 175 183 179 178 191 202 198 197 213 223 224 235 254 241 226 215 210 227 238 237 231 233 246 239 215 197 186 216 232
173 170 171 160 147 141 138 133 141 151 160 175 181 183 184 184 184 193 199 202 200 213 221 220 223 240 261 249 226 196 209 234 249 248 240 234 239 236 196 183 201 230 259
140 145 145 134 139 143 136 136 148 154 174 187 186 182 176 176 188 197 204 199 196 212 218 233 239 239 249 250 230 201 211 237 253 260 256 242 235 224 199 199 205 226 246
134 132 130 134 146 145 140 147 159 187 198 177 164 165 169 176 185 185 195 189 202 219 228 241 247 247 249 250 235 214 212 227 237 246 254 252 237 225 215 210 219 228 225
122 128 129 132 132 142 149 156 185 202 170 149 154 164 169 179 181 177 192 188 191 214 233 245 259 259 254 245 237 223 219 220 227 241 246 249 241 234 228 223 229 226 218
138 136 137 135 133 154 160 172 196 162 144 145 166 176 175 188 184 185 194 194 195 212 240 243 253 266 266 252 241 234 230 226 233 249 248 244 243 242 238 235 226 218 215
145 140 138 152 176 189 179 184 173 156 157 171 186 184 190 213 213 201 203 209 214 215 228 239 250 260 263 258 250 246 241 235 238 251 252 233 226 232 241 242 233 226 221
149 146 158 184 198 195 195 188 169 161 172 185 194 205 215 218 223 222 223 224 225 216 220 233 232 237 252 250 236 223 226 225 227 221 231 224 234 241 252 255 249 236 225
146 145 161 186 198 190 201 199 177 173 177 194 204 210 215 218 218 216 257 258 245 250 241 238 237 243 243 246 235 229 230 226 202 184 223 235 237 239 243 248 256 249 240
Height
1515 1517 1519 1521 1523 1525 1526 1528 1529 1531 1532 1533 1533 1534 1534 1535 1536 1537 1538 1538 1539 1539 1539 1540 1540 1541 1541 1542 1543 1543 1544 1544 1545 1545 1545 1545 1546 1546 1546 1547 1547 1547 1548
1513 1516 1518 1520 1522 1524 1526 1528 1529 1530 1531 1532 1533 1534 1535 1535 1537 1537 1538 1539 1539 1539 1539 1540 1540 1541 1541 1541 1542 1543 1543 1544 1544 1545 1545 1545 1546 1545 1546 1546 1546 1546 1547
1510 1513 1516 1518 1520 1522 1524 1527 1528 1529 1531 1532 1533 1534 1534 1535 1536 1537 1537 1538 1538 1539 1539 1539 1540 1540 1540 1541 1541 1542 1542 1543 1543 1544 1545 1545 1544 1545 1545 1545 1545 1546 1546
1507 1510 1513 1515 1518 1520 1523 1525 1527 1529 1530 1531 1532 1533 1533 1534 1535 1536 1537 1538 1538 1538 1539 1539 1539 1539 1540 1540 1540 1541 1541 1542 1542 1543 1543 1544 1544 1544 1544 1544 1544 1544 1545
1504 1507 1510 1512 1515 1519 1521 1523 1525 1527 1529 1530 1531 1532 1533 1534 1535 1535 1536 1536 1537 1538 1538 1538 1538 1539 1539 1539 1540 1540 1540 1540 1541 1541 1542 1542 1542 1543 1543 1542 1543 1543 1543
1500 1504 1507 1510 1514 1516 1519 1521 1523 1525 1527 1529 1530 1531 1532 1532 1533 1534 1535 1535 1536 1537 1537 1538 1538 1538 1538 1539 1539 1539 1539 1539 1540 1540 1540 1541 1541 1541 1541 1541 1541 1541 1541
1496 1500 1503 1507 1510 1513 1516 1519 1521 1523 1525 1527 1528 1529 1530 1531 1532 1532 1533 1534 1535 1535 1536 1536 1537 1537 1537 1537 1538 1538 1538 1538 1538 1538 1538 1539 1539 1539 1539 1539 1539 1539 1539
1492 1496 1500 1504 1507 1510 1513 1516 1519 1521 1523 1525 1526 1528 1529 1530 1531 1531 1532 1533 1533 1534 1535 1535 1535 1535 1536 1536 1536 1536 1536 1536 1536 1536 1536 1536 1537 1537 1537 1538 1538 1537 1537
1488 1492 1496 1500 1504 1507 1510 1513 1516 1518 1520 1522 1524 1526 1527 1528 1529 1530 1531 1531 1532 1533 1533 1533 1533 1534 1534 1534 1535 1535 1535 1534 1534 1535 1535 1535 1535 1535 1535 1535 1535 1536 1534
1485 1489 1494 1497 1501 1504 1508 1511 1513 1516 1518 1520 1522 1524 1525 1527 1528 1529 1529 1530 1531 1531 1531 1532 1532 1532 1532 1532 1533 1533 1533 1533 1533 1533 1533 1533 1532 1532 1532 1532 1532 1532 1532
1483 1487 1491 1495 1499 1502 1505 1508 1510 1513 1516 1518 1520 1522 1523 1525 1526 1527 1527 1528 1529 1529 1530 1530 1531 1531 1531 1531 1531 1532 1532 1531 1531 1531 1531 1530 1530 1530 1530 1530 1530 1530 1529
1482 1486 1490 1494 1497 1500 1503 1505 1508 1510 1513 1516 1518 1520 1521 1523 1523 1524 1525 1527 1527 1528 1528 1528 1529 1529 1529 1529 1530 1530 1530 1530 1529 1529 1529 1528 1528 1527 1527 1527 1527 1527 1526
1482 1485 1489 1492 1495 1497 1500 1502 1505 1508 1511 1514 1516 1517 1519 1520 1521 1522 1523 1524 1525 1526 1526 1526 1527 1527 1527 1528 1528 1528 1528 1528 1527 1527 1527 1526 1526 1525 1525 1524 1524 1524 1524
1481 1484 1487 1490 1493 1495 1498 1500 1503 1505 1509 1511 1513 1515 1516 1517 1518 1520 1521 1522 1523 1524 1524 1525 1525 1525 1525 1526 1526 1526 1526 1526 1526 1525 1525 1524 1523 1523 1522 1522 1522 1522 1522
1481 1483 1486 1489 1491 1494 1496 1498 1501 1504 1507 1509 1510 1511 1513 1515 1516 1517 1518 1519 1520 1521 1522 1522 1522 1523 1523 1523 1524 1524 1524 1524 1523 1523 1522 1521 1521 1520 1519 1519 1519 1519 1519
1479 1481 1484 1487 1489 1492 1494 1497 1499 1502 1504 1506 1507 1509 1511 1512 1513 1514 1516 1517 1518 1518 1519 1519 1520 1520 1520 1521 1521 1521 1521 1521 1520 1520 1519 1519 1518 1517 1517 1517 1517 1517 1517
1477 1480 1482 1484 1487 1490 1492 1495 1498 1500 1501 1503 1505 1507 1508 1509 1511 1512 1513 1514 1515 1516 1516 1516 1517 1517 1517 1518 1518 1518 1518 1518 1517 1517 1517 1516 1516 1515 1515 1514 1514 1514 1514
1475 1478 1480 1483 1486 1488 1491 1494 1496 1498 1500 1501 1503 1505 1506 1507 1508 1509 1510 1511 1512 1513 1513 1513 1514 1514 1515 1515 1515 1515 1515 1514 1514 1514 1513 1513 1513 1513 1512 1512 1511 1511 1511
1474 1476 1479 1481 1484 1487 1489 1492 1494 1496 1498 1499 1500 1502 1503 1505 1505 1507 1507 1508 1509 1510 1510 1511 1511 1511 1511 1512 1512 1512 1511 1511 1511 1510 1510 1510 1510 1510 1510 1509 1509 1508 1508
1473 1475 1478 1481 1484 1486 1489 1491 1492 1494 1495 1496 1498 1499 1501 1502 1503 1503 1504 1506 1506 1507 1507 1508 1508 1508 1508 1509 1509 1508 1508 1507 1507 1507 1507 1507 1507 1507 1507 1506 1506 1505 1506
1472 1475 1478 1480 1483 1486 1488 1489 1491 1492 1493 1494 1496 1497 1498 1499 1500 1501 1502 1503 1503 1504 1504 1504 1504 1505 1505 1505 1505 1505 1505 1504 1504 1503 1503 1503 1504 1503 1503 1503 1503 1502 1503
1472 1474 1477 1479 1482 1485 1487 1488 1490 1491 1492 1492 1494 1495 1496 1497 1498 1499 1500 1500 1499 1500 1501 1500 1501 1501 1501 1501 1501 1501 1500 1500 1500 1500 1499 1500 1500 1499 1499 1499 1499 1499 1499
1472 1474 1476 1479 1481 1483 1485 1487 1488 1489 1490 1491 1492 1493 1493 1494 1495 1496 1496 1496 1497 1496 1496 1496 1496 1497 1497 1497 1497 1497 1496 1496 1496 1496 1496 1496 1495 1496 1495 1495 1495 1495 1494
1472 1474 1476 1478 1480 1481 1483 1485 1487 1488 1488 1489 1490 1490 1491 1492 1492 1493 1493 1493 1493 1492 1493 1493 1493 1493 1493 1493 1493 1492 1492 1492 1492 1492 1492 1491 1491 1491 1491 1491 1490 1490 1490
1471 1473 1474 1476 1478 1480 1482 1483 1485 1486 1486 1487 1487 1488 1488 1489 1490 1490 1490 1489 1490 1489 1490 1490 1490 1490 1489 1489 1489 1489 1488 1488 1488 1487 1487 1486 1486 1486 1486 1486 1485 1485 1485
1469 1471 1473 1475 1476 1478 1480 1481 1483 1484 1484 1485 1485 1485 1486 1486 1486 1486 1487 1486 1487 1487 1487 1487 1487 1486 1486 1486 1485 1485 1485 1484 1484 1483 1482 1481 1481 1481 1481 1481 1481 1480 1480